Wind_Speed
21 16 13 14 12 11 10 5 6 8 10 13 16 16 19 21 23 23 34 35 29 32 32 38 45 47 46 51 57 64 57 47 36 23 18 16 15 16 15 18 22 16 14 18 21 22 23 22 21
23 19 15 15 16 12 11 8 6 7 9 12 14 17 18 19 22 25 34 33 30 31 31 37 41 45 47 49 56 60 63 50 44 31 23 16 17 14 15 17 22 14 14 16 18 20 21 21 20
25 21 19 20 16 12 13 9 9 8 7 8 12 15 14 19 22 24 32 31 30 30 29 33 41 43 45 48 56 59 61 57 45 39 29 24 23 14 15 13 18 18 12 14 17 18 19 19 19
28 24 21 18 14 14 10 11 9 8 5 7 11 13 13 18 21 23 31 26 27 30 28 32 37 44 43 47 54 59 58 59 44 39 32 26 25 24 14 9 15 17 12 12 17 16 17 20 19
26 24 23 21 19 15 14 4 1 8 7 12 12 14 12 16 20 23 28 23 27 31 28 32 33 45 43 45 51 57 54 56 53 44 38 28 24 23 23 14 12 15 11 13 13 17 19 19 17
28 27 24 23 21 18 16 11 8 10 13 13 13 12 14 14 20 22 21 21 24 31 31 31 31 39 39 45 54 56 50 55 53 43 36 31 26 23 18 17 15 14 14 15 17 17 20 18 14
32 30 28 25 21 18 19 14 12 7 6 9 10 14 13 15 15 18 18 18 22 27 33 33 31 33 37 42 43 55 50 54 50 49 44 36 33 23 18 15 14 16 17 14 17 19 17 15 16
35 33 31 28 23 20 20 16 13 6 11 10 8 11 13 13 11 16 15 17 18 24 30 35 32 36 39 40 39 45 53 50 53 46 47 47 34 31 25 24 20 18 14 18 19 16 14 14 14
39 38 35 32 24 20 20 19 22 17 10 7 12 12 14 15 12 15 17 18 15 20 26 33 36 34 40 40 37 40 54 51 55 52 44 44 45 38 30 26 20 18 18 18 16 16 19 19 15
43 42 39 28 26 23 23 22 25 18 16 16 7 13 15 16 12 18 17 17 22 17 26 30 35 38 43 40 40 40 49 50 58 52 50 45 45 48 36 29 27 18 19 22 24 16 15 12 11
48 45 43 30 32 27 25 25 23 23 20 20 15 15 17 18 17 19 18 20 27 17 25 30 37 38 41 42 37 37 46 51 53 58 53 51 44 47 47 33 27 26 21 22 20 15 10 11 15
51 49 43 38 36 31 28 25 26 24 25 23 17 21 21 25 20 24 23 19 19 27 29 30 37 37 38 43 41 36 39 49 50 53 56 52 52 40 39 42 29 28 25 21 17 15 14 15 14
54 50 46 40 38 33 30 29 27 28 26 24 25 20 19 21 25 26 24 21 19 26 30 29 36 36 39 39 42 36 37 43 48 52 58 55 54 51 45 39 33 32 29 23 17 13 15 13 14
57 53 48 44 43 39 33 31 29 32 27 28 26 21 20 21 23 26 23 19 30 35 30 31 33 35 38 36 39 34 39 40 45 51 57 53 54 57 45 40 34 29 25 24 19 18 17 14 15
62 56 53 48 47 43 38 33 35 35 30 31 28 26 24 24 24 16 22 28 33 36 26 29 31 36 36 37 35 38 42 42 46 46 56 53 53 57 55 40 33 27 22 24 20 22 23 22 26
65 62 57 54 52 48 40 38 40 36 36 33 28 29 30 25 23 29 24 30 33 28 25 36 37 34 38 38 39 39 44 42 44 45 49 53 52 53 58 47 38 26 27 25 22 26 23 22 24
69 63 60 62 58 50 44 45 44 39 39 36 32 31 31 28 25 31 31 31 29 31 32 40 39 38 36 38 38 38 42 43 42 45 47 51 53 53 58 54 43 29 29 26 28 28 26 23 28
75 71 68 66 64 55 48 47 47 43 41 40 36 34 34 32 29 27 31 32 30 40 44 36 36 39 37 36 38 40 42 43 44 47 45 46 52 53 53 56 51 28 33 33 32 33 31 30 31
82 77 73 71 69 55 53 50 50 48 45 45 42 38 37 38 33 34 33 36 39 41 38 43 34 33 37 35 35 38 44 46 47 49 47 46 50 49 56 56 52 41 36 38 32 33 32 27 26
85 82 77 76 73 66 56 59 50 49 50 50 46 44 40 41 39 38 33 37 39 41 39 37 39 36 34 34 38 41 45 48 51 52 49 48 53 55 51 52 52 49 44 42 37 33 31 36 38
87 85 85 81 82 73 62 58 57 53 53 52 53 51 45 45 45 41 37 38 40 43 40 42 42 39 37 37 41 43 44 47 51 53 52 52 53 58 53 49 53 56 46 48 45 40 42 44 37
91 89 91 87 85 75 71 60 61 56 56 55 58 55 52 49 50 48 43 40 43 45 44 43 46 42 41 40 43 45 45 48 49 51 53 55 55 62 56 50 52 50 56 50 45 45 45 44 49
86 96 94 90 87 84 74 65 63 63 61 58 61 61 59 55 54 53 49 45 43 44 45 46 45 43 44 44 47 48 47 49 51 51 53 56 60 66 59 51 49 56 55 53 50 46 45 49 53
88 95 96 95 91 88 75 74 65 66 66 66 62 65 64 62 59 58 54 54 48 48 44 45 47 45 46 47 47 50 53 52 49 51 55 58 63 64 60 52 51 53 52 52 51 53 55 54 54
90 91 93 95 91 76 83 85 64 69 71 72 65 66 68 67 64 65 61 60 50 52 49 49 44 46 48 48 50 49 50 51 53 56 58 64 62 62 57 54 50 53 53 53 50 53 55 55 59
94 95 93 91 92 85 95 83 70 75 79 73 66 71 70 69 72 71 67 66 61 54 53 49 52 50 47 49 53 51 53 56 57 59 61 64 62 63 62 58 55 49 49 53 50 55 59 59 57
91 104 83 96 95 94 90 86 81 81 81 75 71 77 74 74 76 77 74 69 66 63 56 55 57 53 53 54 50 55 57 54 59 64 66 63 60 60 65 61 62 54 52 64 69 68 64 64 64
100 91 100 106 100 95 88 88 80 85 86 84 79 79 78 80 78 80 79 74 73 69 64 63 60 56 57 58 63 60 58 62 66 71 69 68 62 64 70 67 67 69 64 65 71 75 75 77 77
104 101 106 106 101 95 86 87 83 86 90 83 80 79 79 82 83 80 83 76 75 75 68 66 64 64 66 66 64 65 67 71 74 75 72 65 67 69 72 71 72 71 67 69 74 80 82 85 84
117 108 108 114 97 96 95 95 87 87 86 88 85 80 81 83 83 83 83 77 76 78 71 67 66 66 69 69 70 72 75 77 77 75 69 71 70 73 77 74 79 75 69 75 79 80 86 89 89
Wind_Direction
211 212 203 209 240 231 221 207 287 319 338 336 337 345 350 358 358 3 3 8 11 7 11 10 5 10 20 24 23 20 19 10 11 18 15 14 360 353 359 11 16 13 18 23 29 24 26 21 15
209 213 215 233 239 238 235 228 246 290 316 337 342 349 358 7 3 6 5 5 12 5 7 14 8 12 19 22 23 18 18 11 7 10 17 14 1 0 1 9 15 21 20 21 17 22 21 19 15
211 217 219 226 220 218 222 226 250 279 305 343 344 351 0 358 359 359 359 0 8 10 10 11 17 12 19 20 23 21 17 19 10 6 9 20 16 3 357 0 6 14 26 30 18 26 22 17 14
216 219 220 230 208 179 203 218 225 258 282 334 345 356 359 354 355 351 355 6 12 14 9 12 13 12 16 22 21 22 17 20 18 9 5 13 25 17 359 350 13 5 15 21 33 22 25 15 10
212 216 220 227 236 242 225 238 218 265 293 328 339 358 345 340 339 338 353 4 16 18 14 13 7 12 17 20 21 19 19 13 21 17 7 3 13 25 23 0 332 352 344 352 356 14 8 10 14
217 219 224 231 241 251 259 270 280 280 290 312 329 345 349 342 331 342 356 359 11 18 18 14 10 10 14 23 22 14 19 10 17 18 11 3 5 10 14 17 8 354 354 358 357 352 356 353 355
217 222 228 233 240 249 258 272 282 269 292 301 317 350 346 334 342 348 356 359 5 11 15 14 14 6 14 15 15 13 18 10 14 21 19 9 4 354 345 352 337 326 321 338 343 341 344 340 339
219 221 226 228 232 238 251 263 262 237 280 292 302 338 339 337 334 346 337 349 350 353 5 3 11 11 13 11 12 5 13 14 4 17 24 18 4 352 348 349 346 354 331 321 328 336 359 342 335
218 219 223 226 234 229 249 258 257 266 280 287 290 321 327 334 320 333 340 331 339 340 357 0 1 0 8 15 14 2 11 10 359 9 17 15 16 3 344 345 338 322 334 329 332 322 325 333 324
216 217 223 228 221 227 246 250 262 270 288 306 309 293 306 316 310 313 337 340 339 341 355 358 357 359 360 11 16 4 6 7 360 5 7 11 15 10 353 343 340 332 327 325 329 321 322 330 341
216 217 224 218 221 229 235 248 252 265 273 293 301 296 306 310 313 309 308 317 338 325 349 349 351 355 354 360 11 12 2 8 359 354 2 2 2 7 7 348 334 332 327 327 334 343 356 359 343
219 221 223 217 223 227 229 241 249 261 271 279 287 288 299 302 297 300 295 305 323 332 328 340 347 349 354 354 1 7 355 5 2 1 356 359 358 1 359 360 337 328 318 321 331 344 345 336 337
220 222 225 222 224 228 226 233 248 259 261 276 280 281 297 305 290 290 289 296 320 327 316 334 344 346 350 353 355 1 360 355 356 359 356 355 354 351 356 357 349 326 318 316 314 324 321 329 319
220 223 225 225 225 230 225 234 242 253 260 272 289 292 304 317 310 298 287 304 315 315 310 334 337 341 344 347 350 353 356 349 356 356 360 351 352 350 351 349 345 328 313 313 313 318 310 322 319
222 222 225 226 229 232 231 236 241 251 258 268 281 292 297 312 298 294 290 315 312 305 311 332 335 335 340 344 344 347 347 353 355 351 358 352 350 348 345 344 343 326 317 315 304 309 317 299 298
223 224 228 228 231 230 236 239 243 248 258 263 276 287 292 303 291 289 295 308 299 296 323 329 334 333 337 338 343 342 342 346 351 354 354 353 347 346 341 343 345 334 324 316 309 306 307 300 302
226 227 227 231 231 230 234 239 246 248 258 263 271 279 288 296 298 288 299 297 287 308 316 321 321 324 331 333 337 338 338 340 344 348 351 349 348 338 341 337 340 335 328 318 315 309 307 294 297
229 227 228 230 233 231 232 240 246 250 257 263 268 275 280 289 300 292 294 296 294 311 307 311 319 319 325 329 334 334 339 339 338 342 346 350 346 342 338 337 334 327 333 328 314 312 308 303 306
228 230 230 231 236 233 237 238 245 250 256 262 267 271 278 285 292 292 295 288 294 300 304 310 313 315 318 323 328 327 333 335 335 338 340 345 350 340 335 330 332 329 327 332 321 314 305 305 313
231 232 232 235 236 236 230 241 241 249 256 262 267 270 274 282 286 292 298 293 293 295 298 307 311 315 308 311 320 325 332 332 334 333 331 339 342 344 339 327 323 321 319 328 325 324 313 307 309
232 233 234 234 238 235 234 238 243 245 253 262 268 269 272 277 284 289 294 296 292 294 296 304 308 307 312 309 311 317 322 327 330 331 328 329 336 339 338 329 320 322 316 326 325 313 319 316 311
232 235 235 235 238 238 236 234 244 247 251 259 266 269 271 275 280 287 292 294 295 287 291 298 303 304 310 308 307 310 315 321 323 327 323 324 330 329 330 326 319 319 318 319 319 311 310 310 310
235 237 237 237 238 238 239 236 247 248 252 255 264 266 270 274 279 284 290 289 296 292 286 294 298 299 304 307 305 301 305 317 316 322 322 322 321 324 326 323 314 314 312 313 316 313 304 304 303
238 240 239 239 239 240 243 243 241 251 254 255 258 268 269 272 277 282 286 289 295 293 286 288 291 292 295 298 297 297 300 309 316 318 321 320 319 321 323 322 314 312 309 309 312 311 310 303 300
243 243 243 243 245 245 247 244 240 254 253 256 258 266 268 272 277 279 282 286 290 289 282 286 284 286 287 289 291 294 298 305 308 312 316 318 317 316 316 317 314 312 304 304 303 304 305 302 301
244 246 245 247 247 243 246 245 244 250 251 254 261 264 266 269 274 276 279 284 287 288 282 281 282 284 283 287 289 293 300 303 306 310 315 317 314 314 314 317 317 309 300 295 286 288 299 301 304
241 244 248 246 247 245 247 248 247 252 253 255 258 263 265 267 273 277 279 281 285 288 286 277 279 282 282 288 290 297 301 306 309 311 315 314 307 312 311 310 316 312 297 297 288 292 296 297 300
240 243 243 245 243 246 245 249 250 254 254 254 254 260 267 270 269 274 277 280 284 285 283 276 276 276 279 285 292 298 302 305 307 311 312 311 308 306 308 308 311 313 310 301 294 292 294 293 294
237 242 243 246 245 248 246 250 251 253 255 256 260 261 263 265 269 271 274 277 282 285 283 278 278 280 283 288 294 299 301 304 307 310 309 307 305 306 306 306 309 309 304 301 296 294 293 295 296
240 238 244 245 244 250 247 242 249 253 256 258 255 257 263 268 270 270 272 277 281 283 280 277 278 281 284 287 293 297 301 304 306 306 305 305 304 304 307 304 305 307 302 300 295 293 293 293 296
Height
10917 10918 10919 10919 10920 10920 10919 10920 10920 10920 10920 10919 10917 10917 10915 10914 10912 10910 10906 10902 10900 10897 10894 10889 10884 10879 10873 10866 10858 10853 10844 10837 10832 10829 10826 10824 10823 10821 10820 10819 10817 10815 10813 10811 10809 10808 10807 10806 10805
10914 10915 10916 10917 10917 10918 10920 10918 10919 10919 10920 10919 10917 10917 10916 10914 10912 10910 10907 10904 10901 10897 10894 10890 10886 10881 10875 10869 10861 10854 10848 10839 10833 10829 10827 10825 10823 10821 10819 10819 10818 10816 10814 10813 10811 10808 10808 10806 10806
10911 10912 10914 10915 10914 10916 10918 10917 10917 10917 10919 10919 10918 10916 10916 10914 10912 10910 10908 10904 10902 10898 10894 10890 10887 10882 10877 10870 10863 10857 10852 10843 10836 10831 10828 10827 10824 10822 10820 10819 10818 10816 10815 10814 10812 10809 10808 10807 10806
10907 10909 10910 10911 10913 10913 10914 10915 10916 10916 10917 10918 10918 10916 10915 10913 10913 10911 10907 10905 10902 10898 10894 10890 10887 10883 10879 10872 10865 10859 10853 10848 10841 10835 10830 10828 10825 10822 10820 10819 10818 10816 10815 10813 10812 10810 10808 10806 10804
10903 10904 10906 10908 10910 10911 10913 10914 10915 10914 10915 10916 10916 10915 10914 10912 10911 10910 10907 10905 10903 10899 10894 10891 10887 10885 10880 10875 10867 10862 10856 10851 10845 10839 10833 10829 10826 10824 10821 10820 10818 10816 10815 10813 10811 10810 10808 10806 10805
10898 10901 10903 10904 10906 10908 10909 10911 10912 10913 10913 10914 10914 10915 10914 10912 10910 10908 10907 10905 10902 10898 10895 10892 10888 10885 10882 10876 10869 10864 10858 10852 10847 10840 10835 10830 10826 10824 10822 10821 10820 10817 10815 10813 10811 10809 10807 10806 10805
10894 10896 10898 10900 10904 10905 10906 10908 10910 10910 10910 10913 10913 10913 10912 10910 10909 10907 10906 10904 10901 10898 10895 10893 10889 10887 10883 10877 10870 10867 10860 10853 10848 10842 10837 10832 10827 10823 10821 10821 10819 10817 10814 10812 10810 10808 10807 10805 10804
10889 10892 10893 10896 10899 10901 10902 10905 10906 10907 10909 10910 10911 10911 10911 10910 10908 10906 10905 10903 10901 10898 10895 10891 10888 10886 10882 10878 10870 10868 10862 10854 10849 10843 10838 10835 10829 10823 10820 10818 10818 10816 10814 10812 10810 10807 10805 10804 10803
10883 10886 10888 10890 10894 10898 10898 10901 10901 10903 10904 10906 10907 10909 10908 10907 10906 10905 10903 10902 10899 10897 10894 10891 10887 10884 10881 10876 10870 10866 10861 10854 10849 10844 10838 10834 10830 10825 10820 10818 10816 10815 10813 10810 10808 10806 10804 10802 10801
10877 10880 10881 10888 10890 10895 10894 10898 10897 10899 10900 10901 10903 10904 10906 10905 10904 10903 10901 10900 10897 10894 10892 10890 10887 10882 10879 10874 10869 10864 10862 10854 10848 10843 10838 10833 10828 10826 10822 10818 10814 10812 10810 10807 10804 10802 10800 10799 10799
10869 10874 10874 10886 10884 10889 10891 10893 10894 10895 10896 10897 10898 10899 10900 10900 10900 10900 10899 10896 10893 10892 10890 10887 10885 10881 10876 10872 10867 10863 10861 10854 10848 10842 10838 10832 10827 10824 10821 10818 10815 10811 10808 10804 10801 10799 10797 10797 10796
10863 10866 10872 10878 10880 10883 10887 10889 10890 10891 10892 10894 10894 10895 10895 10895 10895 10893 10893 10893 10891 10888 10887 10883 10880 10877 10874 10869 10865 10861 10858 10853 10849 10843 10837 10833 10828 10821 10818 10815 10812 10809 10806 10802 10799 10797 10795 10794 10794
10857 10861 10866 10872 10874 10878 10882 10884 10886 10885 10888 10888 10889 10890 10891 10890 10889 10888 10888 10887 10886 10886 10882 10880 10877 10874 10870 10866 10862 10859 10856 10852 10848 10843 10838 10832 10827 10821 10816 10811 10808 10806 10803 10800 10798 10796 10794 10792 10790
10849 10854 10860 10864 10867 10870 10875 10878 10882 10879 10883 10883 10884 10885 10885 10885 10884 10884 10882 10882 10881 10881 10877 10877 10874 10871 10867 10863 10860 10856 10853 10849 10846 10841 10837 10831 10827 10820 10814 10809 10804 10801 10799 10797 10796 10794 10792 10790 10787
10840 10847 10850 10856 10860 10863 10868 10874 10875 10875 10879 10879 10880 10880 10880 10881 10881 10880 10879 10878 10875 10874 10875 10873 10871 10867 10864 10861 10857 10854 10850 10846 10842 10838 10834 10829 10825 10819 10813 10807 10803 10799 10797 10795 10793 10791 10789 10787 10784
10831 10836 10844 10847 10850 10855 10863 10867 10867 10871 10872 10874 10876 10875 10876 10876 10877 10876 10875 10873 10870 10868 10871 10866 10866 10864 10860 10857 10854 10849 10846 10844 10840 10836 10831 10826 10822 10818 10811 10805 10799 10797 10794 10792 10790 10787 10785 10782 10780
10823 10833 10836 10835 10839 10848 10854 10857 10859 10865 10865 10869 10871 10871 10871 10872 10873 10872 10871 10868 10865 10864 10861 10863 10860 10859 10856 10853 10850 10846 10843 10840 10836 10832 10827 10823 10818 10813 10810 10803 10797 10793 10792 10790 10787 10784 10780 10779 10777
10812 10817 10822 10826 10828 10839 10847 10850 10852 10857 10858 10861 10864 10865 10865 10867 10868 10867 10866 10865 10862 10860 10857 10859 10856 10853 10850 10848 10843 10840 10838 10834 10831 10828 10823 10820 10814 10808 10806 10802 10796 10789 10788 10787 10784 10781 10777 10775 10772
10796 10804 10812 10815 10818 10833 10839 10844 10844 10848 10852 10853 10855 10858 10859 10860 10863 10861 10861 10859 10857 10854 10851 10849 10853 10847 10843 10841 10839 10834 10831 10829 10826 10822 10818 10815 10812 10806 10802 10797 10795 10792 10786 10781 10779 10775 10771 10767 10767
10786 10792 10803 10804 10809 10818 10830 10830 10838 10842 10843 10844 10847 10850 10853 10852 10855 10855 10854 10852 10850 10847 10844 10842 10841 10843 10839 10836 10834 10832 10828 10824 10820 10816 10813 10809 10806 10803 10798 10793 10787 10783 10780 10777 10773 10771 10767 10762 10760
10775 10783 10786 10791 10789 10802 10818 10826 10827 10833 10835 10837 10837 10840 10844 10844 10845 10848 10848 10845 10843 10841 10838 10836 10834 10832 10833 10829 10826 10824 10823 10818 10814 10811 10807 10802 10797 10796 10792 10788 10783 10779 10772 10769 10765 10761 10761 10756 10753
10763 10767 10767 10774 10778 10796 10799 10820 10818 10825 10828 10829 10826 10829 10831 10834 10835 10838 10840 10840 10836 10833 10832 10830 10827 10825 10824 10821 10819 10816 10814 10811 10807 10804 10800 10797 10791 10786 10783 10779 10776 10772 10769 10764 10759 10756 10753 10750 10745
10760 10745 10752 10761 10769 10776 10793 10806 10814 10813 10816 10820 10816 10815 10818 10822 10824 10827 10830 10830 10831 10827 10826 10822 10820 10818 10815 10814 10811 10807 10806 10803 10799 10797 10793 10790 10785 10780 10775 10770 10767 10763 10759 10756 10753 10748 10744 10740 10736
10731 10731 10739 10746 10755 10761 10790 10790 10807 10803 10804 10805 10810 10804 10805 10809 10813 10815 10823 10814 10822 10818 10818 10816 10812 10809 10807 10805 10803 10799 10796 10795 10792 10789 10786 10781 10777 10772 10767 10762 10757 10754 10749 10744 10739 10736 10734 10730 10726
10715 10720 10727 10735 10746 10776 10766 10762 10804 10787 10792 10791 10798 10797 10794 10796 10799 10800 10808 10808 10813 10806 10807 10806 10803 10800 10798 10795 10793 10791 10788 10785 10782 10779 10776 10772 10767 10763 10759 10754 10748 10744 10740 10738 10735 10729 10722 10718 10713
10698 10701 10711 10725 10731 10753 10734 10761 10788 10773 10770 10783 10789 10781 10785 10789 10783 10786 10796 10796 10801 10799 10796 10794 10794 10792 10789 10787 10784 10781 10779 10776 10772 10769 10765 10762 10757 10753 10748 10744 10740 10736 10732 10729 10724 10719 10714 10707 10701
10695 10667 10721 10694 10704 10722 10733 10749 10765 10764 10763 10770 10774 10767 10773 10775 10773 10771 10778 10788 10786 10784 10786 10783 10783 10781 10779 10776 10775 10772 10769 10765 10762 10759 10754 10750 10746 10742 10740 10736 10730 10727 10721 10717 10710 10703 10697 10691 10687
10655 10686 10668 10662 10689 10705 10727 10734 10751 10742 10745 10750 10764 10762 10762 10759 10765 10760 10762 10774 10772 10772 10771 10770 10770 10771 10767 10765 10763 10760 10756 10754 10750 10746 10742 10739 10734 10730 10726 10722 10716 10712 10706 10701 10695 10689 10682 10677 10670
10646 10649 10649 10653 10670 10693 10722 10721 10729 10720 10719 10744 10748 10750 10749 10744 10745 10752 10749 10763 10760 10757 10754 10753 10753 10755 10754 10752 10750 10747 10743 10740 10736 10731 10728 10724 10719 10715 10710 10706 10701 10695 10690 10685 10680 10676 10669 10661 10655
10606 10630 10620 10620 10675 10684 10688 10695 10703 10706 10711 10715 10729 10735 10729 10729 10732 10733 10736 10750 10749 10741 10738 10738 10736 10739 10739 10739 10738 10734 10730 10727 10722 10717 10712 10708 10704 10701 10697 10691 10685 10679 10674 10668 10664 10658 10651 10644 10637